Regional Weather Roundup
Issued by NWS New Orleans/Baton Rouge, LA

Home | Current Version | Previous Version | Graphics & Text | Print | Product List | Glossary On
Versions: 1 2 3 4 5 6 7 8 9 10 11 12 13 14 15 16 17 18 19 20 21 22 23 24 25 26 27 28 29 30 31 32 33 34 35 36 37 38 39 40 41 42 43 44 45 46 47 48 49 50
802
ASUS44 KLIX 260801
RWRLIX
NEW ORLEANS REGIONAL WEATHER ROUNDUP
NATIONAL WEATHER SERVICE NEW ORLEANS LA
300 AM CDT SAT JUL 26 2014

NOTE: "FAIR" INDICATES FEW OR NO CLOUDS BELOW 12,000 FEET WITH NO
      SIGNIFICANT WEATHER AND/OR OBSTRUCTIONS TO VISIBILITY.
      SKY/WX - SKY CONDITION AND SIGNIFICANT WEATHER.
      TMP - AIR TEMPERATURE.     DP    - DEWPOINT TEMPERATURE.
      RH  - RELATIVE HUMIDITY.   PRES  - PRESSURE.
      HI  - HEAT INDEX.          WCI   - WIND CHILL INDEX.

*  THESE STATIONS ARE NOT NWS OR FAA STATIONS AND ARE NOT UNDER
   NWS QUALITY CONTROL.

LAZ038-040-048-061>063-065>067-069-260900-
SOUTHEAST LOUISIANA

CITY           SKY/WX    TMP DP  RH WIND       PRES   REMARKS
N.O. AUDUBON   NOT AVBL
N.O. INTL ARPT PTCLDY    79  75  87 SW7       30.01S
N.O. LAKEFRONT PTCLDY    81  76  84 SW9       30.01F
N.O. DOWNTOWN*   N/A     81  72  74 SW3       30.01S
SLIDELL        PTCLDY    77  74  90 CALM      30.00F
BATON ROUGE    PTCLDY    79  74  84 SW7       30.00F
BOOTHVILLE     MOCLDY    83  76  79 SW9       30.02S
BELLE CHASSE   MOCLDY    78  74  87 CALM      30.01S
BOGALUSA*        N/A     77  74  88 CALM      30.02F FOG
GALLIANO*      NOT AVBL
NEW ROADS*       N/A     77  75  95 CALM      30.00F
GONZALES*        N/A     77  77 100 CALM      30.00F
HAMMOND*       PTCLDY    79  73  83 CALM      30.02S
HOUMA*         PTCLDY    78  73  85 CALM      30.01F
PORT FOURCHON* MOSUNNY   82  75  78 SW8       30.03F

$$

MSZ070-080>082-260900-
SOUTHERN MISSISSIPPI

CITY           SKY/WX    TMP DP  RH WIND       PRES   REMARKS
MCCOMB         CLEAR     75  73  93 CALM      30.01F FOG
GULFPORT       CLEAR     81  75  82 CALM      30.00S
BILOXI         CLEAR     80  76  89 VRB3      30.00S
PASCAGOULA     CLEAR     76  75  97 CALM      30.00S FOG

$$

COASTAL OBSERVATIONS
LAKE AND NEARSHORE STATIONS

STATION/POSITION TIME  TEMP    WIND        PRES    WAVE
                       AIR SEA DIR/SP/G            HT/PER
                 (UTC) (F)     (DEG/KT/KT) (MB)    (FT/S)
PASCAGOULA       0718   83     240/  9/ 13 1015.4
WAVELAND YACHT   0718   80     270/  5/  6 1015.4
GRAND ISLE       0718   82 86  230/  5/  8 1017.3
SOUTHWEST PASS   0718   83 84  250/ 13/ 14 1017.1
NEW CANAL        0718   81 83  230/  4/  5 1016.7
SHELL BEACH      0718   81 81  240/  8/  8 1016.0

OFFSHORE STATIONS

STATION/POSITION TIME  TEMP    WIND        PRES    WAVE
                       AIR SEA DIR/SP/G            HT/PER
                 (UTC) (F)     (DEG/KT/KT) (MB)    (FT/S)
64 S DAUPHIN ISL 0739   83 85  250/ 12/ 14 1016.6

$$




USA.gov is the U.S. government's official web portal to all federal, state and local government web resources and services.